Location: *
(33.8649°S, 62.1526°E)
Time: 12:18:07
(UTC+00:00)

Cosmos 2360 Rocket - Pass Details

Date: 17 January 2021
Orbit: 832 x 846 km, 71.0° (Epoch: 03 March)

Event Time Altitude Azimuth Distance (km) Brightness Sun altitude
Rises 23:12:11 0° 217° (SW) 3,412 5.4 -19.2°
Reaches altitude 10° 23:15:07 10° 231° (SW) 2,468 4.5 -18.7°
Enters shadow 23:18:50 22° 272° (W) 1,745 3.4 -18.2°
